Green Bay, WI

1:45 AM CDT on June 25, 2018 (GMT -0500)
Austin Straubel International

Weather History for KGRB - June, 2014

Change the Weather History Date:

Friday, June 20, 2014

  Actual Average Record
Temperature  
Mean Temperature 59 °F 66 °F  
Max Temperature 63 °F 77 °F 98 °F (1988)
Min Temperature 55 °F 56 °F 41 °F (1969)
Degree Days  
Heating Degree Days 6 2  
Month to date heating degree days 28 76  
Since 1 June heating degree days 28 76  
Since 1 July heating degree days 8768 7939  
Cooling Degree Days 0 3  
Month to date cooling degree days 54 42  
Year to date cooling degree days 70 60  
Since 1 June cooling degree days 54 42  
Growing Degree Days 9 (Base 50)    
Moisture  
Dew Point 57 °F    
Average Humidity 95    
Maximum Humidity 100    
Minimum Humidity 90    
Precipitation  
Precipitation 0.38 in 0.13 in 1.50 in (1997)
Month to date precipitation 3.64 2.61  
Year to date precipitation 14.30 12.26  
Snow  
Snow 0.00 in 0.00 in 0.00 in ()
Month to date snowfall 0.0 0.0  
Since 1 June snowfall 0.0 0.0  
Since 1 July snowfall 72.1 51.4  
Snow Depth 0.00 in    
Sea Level Pressure  
Sea Level Pressure 30.01 in    
Wind  
Wind Speed 6 mph (ENE)    
Max Wind Speed 16 mph    
Max Gust Speed 19 mph    
Visibility 4 miles    
Events Rain    
T = Trace of Precipitation, MM = Missing Value Source: NWS Daily Summary

Daily Weather History Graph

Daily Weather History Graph

Search for Another Location

Airport or City:

Astronomy

Jun. 20, 2014 Rise Set
Actual Time 5:07 AM CDT 8:40 PM CDT
Civil Twilight 4:30 AM CDT 9:17 PM CDT
Nautical Twilight 3:41 AM CDT 10:06 PM CDT
Astronomical Twilight 2:38 AM CDT 11:09 PM CDT
Moon 1:00 AM CDT (6/20) 2:02 PM CDT (6/20)
Length of Visible Light 16h 46m
Length of Day
15h 33m
Last Quarter, 40% of the Moon is Illuminated
Jun 20
Last Quarter
Jun 27
New
Jul 5
First Quarter
Jul 12
Full
Jul 18
Last Quarter

Hourly Weather History & Observations

Time (CDT) Temp. Dew Point Humidity Pressure Visibility Wind Dir Wind Speed Gust Speed Precip Events Conditions
12:35 AM 63.0 °F 55.9 °F 78% 30.05 in 10.0 mi East 8.1 mph - 0.00 in Rain Light Rain
12:53 AM 63.0 °F 55.9 °F 78% 30.05 in 10.0 mi ESE 6.9 mph - 0.00 in Rain Light Rain
1:53 AM 60.1 °F 57.0 °F 90% 30.03 in 10.0 mi East 10.4 mph - 0.01 in   Overcast
2:53 AM 60.1 °F 55.0 °F 83% 30.03 in 10.0 mi SE 11.5 mph - 0.01 in Rain Light Rain
3:53 AM 57.9 °F 53.1 °F 84% 30.02 in 8.0 mi SE 9.2 mph - 0.00 in Rain Light Rain
4:47 AM 55.4 °F 53.6 °F 94% 30.02 in 1.8 mi ESE 8.1 mph - 0.12 in Rain Heavy Rain
4:48 AM 55.0 °F 53.1 °F 93% 30.02 in 1.8 mi ESE 6.9 mph - 0.13 in Rain Heavy Rain
4:58 AM 55.0 °F 54.0 °F 96% 30.02 in 2.5 mi ESE 8.1 mph - 0.03 in Rain Rain
5:04 AM 55.0 °F 54.0 °F 96% 30.02 in 3.0 mi ESE 6.9 mph - 0.04 in Rain Light Rain
5:16 AM 55.0 °F 53.1 °F 93% 30.02 in 2.0 mi ESE 6.9 mph - 0.06 in Rain Rain
5:22 AM 55.0 °F 54.0 °F 96% 30.02 in 1.5 mi East 6.9 mph - 0.08 in Rain Heavy Rain
5:30 AM 55.0 °F 54.0 °F 96% 30.02 in 2.5 mi East 4.6 mph - 0.11 in Rain Light Rain
5:44 AM 55.0 °F 54.0 °F 96% 30.02 in 2.5 mi ESE 5.8 mph - 0.13 in Rain Rain
5:53 AM 55.0 °F 54.0 °F 96% 30.02 in 3.0 mi East 3.5 mph - 0.14 in Rain Light Rain
6:20 AM 55.0 °F 54.0 °F 96% 30.02 in 3.0 mi ESE 4.6 mph - 0.02 in Rain Light Rain
6:53 AM 55.9 °F 55.0 °F 97% 30.01 in 5.0 mi ESE 5.8 mph - 0.04 in Rain Light Rain
7:43 AM 57.0 °F 55.9 °F 96% 30.01 in 5.0 mi ESE 4.6 mph - 0.01 in   Overcast
7:53 AM 57.0 °F 55.9 °F 96% 30.01 in 4.0 mi SE 4.6 mph - 0.01 in Rain Light Rain
8:53 AM 57.2 °F 57.2 °F 100% 30.01 in 5.0 mi Calm Calm - N/A Rain Light Rain
9:41 AM 59.0 °F 57.9 °F 96% 30.00 in 2.0 mi Calm Calm - 0.00 in Rain Light Rain
9:53 AM 59.0 °F 57.9 °F 96% 29.99 in 1.8 mi NNE 3.5 mph - 0.01 in Rain Light Rain
10:10 AM 59.0 °F 57.9 °F 96% 29.99 in 2.5 mi North 3.5 mph - 0.00 in   Overcast
10:18 AM 59.0 °F 57.9 °F 96% 29.99 in 2.0 mi North 4.6 mph - 0.00 in Rain Light Rain
10:28 AM 60.1 °F 59.0 °F 96% 29.99 in 3.0 mi North 4.6 mph - 0.00 in   Overcast
10:43 AM 60.1 °F 59.0 °F 96% 29.99 in 1.8 mi North 4.6 mph - 0.00 in Rain Light Rain
10:53 AM 60.1 °F 59.0 °F 96% 29.99 in 3.0 mi NNW 3.5 mph - 0.00 in   Overcast
11:08 AM 61.0 °F 59.0 °F 93% 30.00 in 3.0 mi NNW 3.5 mph - 0.00 in Rain Light Rain
11:53 AM 62.1 °F 60.1 °F 93% 30.00 in 4.0 mi ENE 3.5 mph - 0.01 in   Overcast
12:36 PM 63.0 °F 61.0 °F 93% 30.01 in 2.0 mi NNE 3.5 mph - 0.00 in Rain Light Rain
12:43 PM 63.0 °F 61.0 °F 93% 30.01 in 1.8 mi North 3.5 mph - 0.00 in Rain Light Rain
12:51 PM 62.6 °F 60.8 °F 94% 30.00 in 2.5 mi NE 3.5 mph - 0.00 in   Overcast
12:53 PM 63.0 °F 61.0 °F 93% 30.00 in 2.5 mi NNE 4.6 mph - 0.00 in   Overcast
1:09 PM 62.1 °F 61.0 °F 96% 30.01 in 3.0 mi North 6.9 mph - N/A   Overcast
1:39 PM 62.1 °F 61.0 °F 96% 30.00 in 3.0 mi North 6.9 mph - N/A   Overcast
1:53 PM 63.0 °F 61.0 °F 93% 30.01 in 3.0 mi NNE 8.1 mph - N/A   Overcast
2:53 PM 62.1 °F 60.1 °F 93% 30.01 in 4.0 mi NNE 6.9 mph - N/A   Overcast
3:09 PM 63.0 °F 61.0 °F 93% 30.00 in 3.0 mi NE 8.1 mph - N/A   Overcast
3:53 PM 62.1 °F 59.0 °F 90% 30.01 in 5.0 mi NE 8.1 mph - N/A   Overcast
4:53 PM 60.1 °F 57.9 °F 93% 30.01 in 3.0 mi NNE 9.2 mph - N/A   Overcast
5:01 PM 60.1 °F 59.0 °F 96% 30.01 in 2.0 mi NNE 8.1 mph - N/A   Overcast
5:09 PM 60.1 °F 57.9 °F 93% 30.01 in 1.5 mi NE 9.2 mph - N/A   Overcast
5:27 PM 60.1 °F 57.9 °F 93% 30.01 in 3.0 mi NE 12.7 mph - N/A   Overcast
5:53 PM 59.0 °F 57.0 °F 93% 30.01 in 4.0 mi NE 13.8 mph - N/A   Overcast
6:10 PM 59.0 °F 57.0 °F 93% 30.00 in 6.0 mi NE 15.0 mph - N/A   Overcast
6:53 PM 59.0 °F 57.0 °F 93% 29.99 in 7.0 mi NE 12.7 mph - N/A   Overcast
7:31 PM 57.9 °F 57.0 °F 97% 29.97 in 5.0 mi ENE 11.5 mph - N/A   Overcast
7:53 PM 57.2 °F 57.2 °F 100% 29.98 in 3.0 mi East 9.2 mph - N/A   Overcast
8:12 PM 57.9 °F 57.0 °F 97% 29.99 in 2.0 mi East 4.6 mph - N/A   Overcast
8:23 PM 57.9 °F 57.0 °F 97% 30.00 in 1.8 mi East 3.5 mph - N/A   Overcast
8:41 PM 57.9 °F 57.0 °F 97% 30.01 in 2.5 mi Calm Calm - N/A   Overcast
8:53 PM 57.9 °F 57.0 °F 97% 30.01 in 4.0 mi Calm Calm - N/A   Overcast
9:36 PM 57.2 °F 57.2 °F 100% 30.01 in 6.0 mi SSE 4.6 mph - N/A   Overcast
9:53 PM 57.9 °F 55.9 °F 93% 30.02 in 5.0 mi ESE 3.5 mph - N/A   Overcast
10:53 PM 57.9 °F 55.9 °F 93% 30.01 in 5.0 mi Calm Calm - N/A   Overcast
11:53 PM 57.9 °F 57.0 °F 97% 30.00 in 4.0 mi Calm Calm - N/A   Overcast